H1 CPF 2 NER 2022 8 17 9 229 01 glonass143 H2 2007501 9143 46805 2022 8 17 0 0 0 2022 8 20 23 45 0 900 1 1 0 0 0 1 H9 10 0 59808 0.00000 0 -10843369.778 8122208.598 -21593547.624 10 0 59808 900.00000 0 -10698390.695 5400950.616 -22499694.172 10 0 59808 1800.00000 0 -10754496.691 2591869.007 -22968092.572 10 0 59808 2700.00000 0 -11017840.789 -235555.405 -22989686.692 10 0 59808 3600.00000 0 -11482285.514 -3011576.370 -22564122.268 10 0 59808 4500.00000 0 -12129637.474 -5668843.675 -21699748.755 10 0 59808 5400.00000 0 -12930408.199 -8144961.341 -20413451.278 10 0 59808 6300.00000 0 -13845068.845 -10384836.737 -18730316.272 10 0 59808 7200.00000 0 -14825745.530 -12342723.549 -16683137.622 10 0 59808 8100.00000 0 -15818283.549 -13983874.626 -14311773.177 10 0 59808 9000.00000 0 -16764593.116 -15285737.084 -11662364.325 10 0 59808 9900.00000 0 -17605177.477 -16238641.217 -8786434.136 10 0 59808 10800.00000 0 -18281736.551 -16845956.129 -5739881.834 10 0 59808 11700.00000 0 -18739736.153 -17123707.360 -2581893.431 10 0 59808 12600.00000 0 -18930834.290 -17099674.246 626209.909 10 0 59808 13500.00000 0 -18815062.230 -16812006.673 3822163.138 10 0 59808 14400.00000 0 -18362668.375 -16307420.864 6943964.855 10 0 59808 15300.00000 0 -17555547.302 -15639051.318 9931077.487 10 0 59808 16200.00000 0 -16388193.824 -14864050.246 12725596.873 10 0 59808 17100.00000 0 -14868141.842 -14041036.081 15273368.917 10 0 59808 18000.00000 0 -13015869.341 -13227498.626 17525032.003 10 0 59808 18900.00000 0 -10864173.039 -12477269.849 19436965.740 10 0 59808 19800.00000 0 -8457038.080 -11838166.277 20972128.483 10 0 59808 20700.00000 0 -5848049.048 -11349901.488 22100768.238 10 0 59808 21600.00000 0 -3098407.236 -11042355.801 22800994.096 10 0 59808 22500.00000 0 -274635.183 -10934275.258 23059197.846 10 0 59808 23400.00000 0 2553937.628 -11032454.243 22870318.030 10 0 59808 24300.00000 0 5317805.217 -11331435.962 22237941.531 10 0 59808 25200.00000 0 7949924.128 -11813743.687 21174240.499 10 0 59808 26100.00000 0 10388252.849 -12450633.653 19699745.281 10 0 59808 27000.00000 0 12578087.437 -13203338.838 17842956.921 10 0 59808 27900.00000 0 14474097.196 -14024752.363 15639805.616 10 0 59808 28800.00000 0 16041976.235 -14861480.666 13132964.527 10 0 59808 29700.00000 0 17259642.450 -15656180.878 10371031.086 10 0 59808 30600.00000 0 18117934.001 -16350084.459 7407590.708 10 0 59808 31500.00000 0 18620774.096 -16885600.858 4300180.449 10 0 59808 32400.00000 0 18784797.212 -17208891.050 1109172.380 10 0 59808 33300.00000 0 18638452.491 -17272301.609 -2103401.667 10 0 59808 34200.00000 0 18220622.212 -17036555.438 -5275060.656 10 0 59808 35100.00000 0 17578813.954 -16472605.260 -8344096.053 10 0 59808 36000.00000 0 16767003.242 -15563070.038 -11250780.103 10 0 59808 36900.00000 0 15843218.496 -14303192.154 -13938536.125 10 0 59808 37800.00000 0 14866971.085 -12701273.378 -16355047.228 10 0 59808 38700.00000 0 13896639.881 -10778569.863 -18453281.074 10 0 59808 39600.00000 0 12986921.563 -8568649.371 -20192410.130 10 0 59808 40500.00000 0 12186454.941 -6116236.697 -21538609.186 10 0 59808 41400.00000 0 11535719.997 -3475594.826 -22465714.552 10 0 59808 42300.00000 0 11065300.449 -708509.044 -22955732.144 10 0 59808 43200.00000 0 10794583.044 2118042.329 -22999184.916 10 0 59808 44100.00000 0 10730948.119 4934433.805 -22595293.205 10 0 59808 45000.00000 0 10869485.068 7671049.392 -21751984.891 10 0 59808 45900.00000 0 11193244.113 10260939.877 -20485735.562 10 0 59808 46800.00000 0 11674013.079 12642370.604 -18821242.125 10 0 59808 47700.00000 0 12273585.745 14761154.247 -16790936.517 10 0 59808 48600.00000 0 12945467.596 16572672.259 -14434349.226 10 0 59808 49500.00000 0 13636946.403 18043501.771 -11797335.211 10 0 59808 50400.00000 0 14291439.676 19152581.182 -8931177.555 10 0 59808 51300.00000 0 14851019.448 19891867.211 -5891586.562 10 0 59808 52200.00000 0 15259007.391 20266457.449 -2737613.991 10 0 59808 53100.00000 0 15462530.414 20294174.849 469496.022 10 0 59808 54000.00000 0 15414928.639 20004633.233 3667496.806 10 0 59808 54900.00000 0 15077914.029 19437824.542 6794346.412 10 0 59808 55800.00000 0 14423388.532 18642288.438 9789408.642 10 0 59808 56700.00000 0 13434845.042 17672942.246 12594624.649 10 0 59808 57600.00000 0 12108292.063 16588663.083 15155632.640 10 0 59808 58500.00000 0 10452662.929 15449724.115 17422814.387 10 0 59808 59400.00000 0 8489691.941 14315192.561 19352248.963 10 0 59808 60300.00000 0 6253261.826 13240398.318 20906556.074 10 0 59808 61200.00000 0 3788248.854 12274578.806 22055613.474 10 0 59808 62100.00000 0 1148912.494 11458798.054 22777135.468 10 0 59808 63000.00000 0 -1603104.863 10824226.460 23057102.048 10 0 59808 63900.00000 0 -4401086.489 10390852.683 22890030.771 10 0 59808 64800.00000 0 -7175764.098 10166681.131 22279086.364 10 0 59808 65700.00000 0 -9857951.753 10147448.526 21236025.689 10 0 59808 66600.00000 0 -12381183.043 10316871.510 19780978.646 10 0 59808 67500.00000 0 -14684243.343 10647415.285 17942068.386 10 0 59808 68400.00000 0 -16713492.932 11101551.593 15754877.133 10 0 59808 69300.00000 0 -18424884.889 11633453.810 13261766.809 10 0 59808 70200.00000 0 -19785594.057 12191058.452 10511066.539 10 0 59808 71100.00000 0 -20775189.146 12718406.676 7556141.719 10 0 59808 72000.00000 0 -21386298.779 13158167.213 4454362.138 10 0 59808 72900.00000 0 -21624743.401 13454233.992 1265988.761 10 0 59808 73800.00000 0 -21509127.315 13554288.156 -1946999.227 10 0 59808 74700.00000 0 -21069907.902 13412215.178 -5122113.841 10 0 59808 75600.00000 0 -20347981.335 12990273.641 -8197580.093 10 0 59808 76500.00000 0 -19392844.665 12260922.452 -11113545.531 10 0 59808 77400.00000 0 -18260412.300 11208227.724 -13813252.982 10 0 59808 78300.00000 0 -17010579.630 9828788.244 -16244152.814 10 0 59808 79200.00000 0 -15704637.279 8132138.951 -18358932.287 10 0 59808 80100.00000 0 -14402645.754 6140614.031 -20116441.343 10 0 59808 81000.00000 0 -13160881.736 3888674.134 -21482496.478 10 0 59808 81900.00000 0 -12029464.004 1421724.877 -22430546.993 10 0 59808 82800.00000 0 -11050259.148 -1205524.650 -22942190.697 10 0 59808 83700.00000 0 -10255155.064 -3931095.397 -23007529.341 10 0 59808 84600.00000 0 -9664774.489 -6688079.552 -22625357.212 10 0 59808 85500.00000 0 -9287682.070 -9407192.089 -21803179.609 10 0 59809 0.00000 0 -9120117.462 -12019426.549 -20557061.390 10 0 59809 900.00000 0 -9146264.648 -14458706.232 -18911308.085 10 0 59809 1800.00000 0 -9339045.293 -16664417.282 -16897987.904 10 0 59809 2700.00000 0 -9661401.293 -18583723.434 -14556301.914 10 0 59809 3600.00000 0 -10068011.739 -20173563.122 -11931816.442 10 0 59809 4500.00000 0 -10507370.785 -21402247.897 -9075572.323 10 0 59809 5400.00000 0 -10924137.907 -22250596.256 -6043088.658 10 0 59809 6300.00000 0 -11261660.626 -22712556.722 -2893280.709 10 0 59809 7200.00000 0 -11464562.577 -22795295.405 312686.638 10 0 59809 8100.00000 0 -11481287.191 -22518745.795 3512587.280 10 0 59809 9000.00000 0 -11266489.251 -21914641.056 6644340.888 10 0 59809 9900.00000 0 -10783173.208 -21025070.651 9647214.803 10 0 59809 10800.00000 0 -10004487.880 -19900622.943 12462997.624 10 0 59809 11700.00000 0 -8915101.756 -18598192.476 15037121.959 10 0 59809 12600.00000 0 -7512100.786 -17178544.347 17319714.972 10 0 59809 13500.00000 0 -5805370.497 -15703737.878 19266557.068 10 0 59809 14400.00000 0 -3817445.737 -14234517.244 20839930.976 10 0 59809 15300.00000 0 -1582833.404 -12827777.780 22009345.624 10 0 59809 16200.00000 0 853164.763 -11534213.180 22752121.689 10 0 59809 17100.00000 0 3436081.783 -10396241.112 23053828.217 10 0 59809 18000.00000 0 6104301.167 -9446293.095 22908562.339 10 0 59809 18900.00000 0 8791376.771 -8705539.376 22319066.868 10 0 59809 19800.00000 0 11428562.176 -8183101.498 21296683.332 10 0 59809 20700.00000 0 13947446.038 -7875785.263 19861140.822 10 0 59809 21600.00000 0 16282585.397 -7768345.143 18040183.926 10 0 59809 22500.00000 0 18374028.532 -7834269.226 15869045.882 10 0 59809 23400.00000 0 20169623.011 -8037052.053 13389776.008 10 0 59809 24300.00000 0 21627013.153 -8331902.196 10650433.344 10 0 59809 25200.00000 0 22715243.507 -8667812.921 7704161.096 10 0 59809 26100.00000 0 23415901.057 -8989908.769 4608159.204 10 0 59809 27000.00000 0 23723747.906 -9241968.806 1422574.595 10 0 59809 27900.00000 0 23646817.493 -9369019.378 -1790669.395 10 0 59809 28800.00000 0 23205969.903 -9319885.938 -4969081.212 10 0 59809 29700.00000 0 22433924.791 -9049594.783 -8050822.825 10 0 59809 30600.00000 0 21373812.618 -8521521.701 -10975920.425 10 0 59809 31500.00000 0 20077305.462 -7709195.112 -13687439.502 10 0 59809 32400.00000 0 18602406.548 -6597675.827 -16132600.585 10 0 59809 33300.00000 0 17010992.165 -5184453.562 -18263813.136 10 0 59809 34200.00000 0 15366210.065 -3479820.915 -20039606.832 10 0 59809 35100.00000 0 13729844.381 -1506707.664 -21425441.781 10 0 59809 36000.00000 0 12159758.265 700018.860 -22394381.794 10 0 59809 36900.00000 0 10707521.924 3094758.909 -22927617.684 10 0 59809 37800.00000 0 9416325.595 5622841.339 -23014830.666 10 0 59809 38700.00000 0 8319264.643 8222571.706 -22654389.198 10 0 59809 39600.00000 0 7438068.113 10827582.349 -21853375.763 10 0 59809 40500.00000 0 6782323.146 13369386.812 -20627443.523 10 0 59809 41400.00000 0 6349226.604 15780032.501 -19000505.942 10 0 59809 42300.00000 0 6123873.088 17994741.215 -17004265.732 10 0 59809 43200.00000 0 6080065.783 19954427.911 -14677592.536 10 0 59809 44100.00000 0 6181614.634 21607993.124 -12065761.662 10 0 59809 45000.00000 0 6384065.835 22914293.878 -9219568.948 10 0 59809 45900.00000 0 6636788.470 23843711.568 -6194339.233 10 0 59809 46800.00000 0 6885329.205 24379252.127 -3048847.972 10 0 59809 47700.00000 0 7073934.721 24517133.469 155822.657 10 0 59809 48600.00000 0 7148134.674 24266836.745 3357470.628 10 0 59809 49500.00000 0 7057275.535 23650620.426 6493980.676 10 0 59809 50400.00000 0 6756898.022 22702518.678 9504526.972 10 0 59809 51300.00000 0 6210857.504 21466867.015 12330748.610 10 0 59809 52200.00000 0 5393097.793 19996417.748 14917875.345 10 0 59809 53100.00000 0 4289003.421 18350124.668 17215782.140 10 0 59809 54000.00000 0 2896273.164 16590689.853 19179952.775 10 0 59809 54900.00000 0 1225277.593 14781974.972 20772334.681 10 0 59809 55800.00000 0 -701115.101 12986384.832 21962069.256 10 0 59809 56700.00000 0 -2848238.845 11262331.630 22726084.443 10 0 59809 57600.00000 0 -5170827.145 9661884.790 23049538.823 10 0 59809 58500.00000 0 -7614659.920 8228703.463 22926109.119 10 0 59809 59400.00000 0 -10118592.874 6996336.926 22358115.775 10 0 59809 60300.00000 0 -12616886.831 5986962.916 21356484.009 10 0 59809 61200.00000 0 -15041741.765 5210615.979 19940540.615 10 0 59809 62100.00000 0 -17325931.668 4664937.591 18137649.622 10 0 59809 63000.00000 0 -19405431.849 4335458.316 15982692.815 10 0 59809 63900.00000 0 -21221929.949 4196400.159 13517404.050 10 0 59809 64800.00000 0 -22725116.452 4211965.498 10789569.134 10 0 59809 65700.00000 0 -23874659.043 4338058.449 7852105.735 10 0 59809 66600.00000 0 -24641777.884 4524366.181 4762040.539 10 0 59809 67500.00000 0 -25010355.319 4716712.141 1579403.042 10 0 59809 68400.00000 0 -24977532.784 4859581.309 -1633942.549 10 0 59809 69300.00000 0 -24553769.165 4898709.959 -4815504.231 10 0 59809 70200.00000 0 -23762357.654 4783629.303 -7903383.856 10 0 59809 71100.00000 0 -22638421.029 4470054.042 -10837488.955 10 0 59809 72000.00000 0 -21227427.570 3922013.309 -13560710.124 10 0 59809 72900.00000 0 -19583290.189 3113632.270 -16020040.189 10 0 59809 73800.00000 0 -17766129.016 2030487.538 -18167612.598 10 0 59809 74700.00000 0 -15839792.033 670477.650 -19961638.129 10 0 59809 75600.00000 0 -13869238.321 -955829.472 -21367221.401 10 0 59809 76500.00000 0 -11917894.169 -2825387.979 -22357041.156 10 0 59809 77400.00000 0 -10045093.183 -4903397.441 -22911881.124 10 0 59809 78300.00000 0 -8303707.627 -7144528.671 -23021001.452 10 0 59809 79200.00000 0 -6738069.895 -9494601.385 -22682343.790 10 0 59809 80100.00000 0 -5382270.555 -11892644.028 -21902566.450 10 0 59809 81000.00000 0 -4258903.268 -14273250.129 -20696909.362 10 0 59809 81900.00000 0 -3378307.915 -16569133.122 -19088891.762 10 0 59809 82800.00000 0 -2738342.287 -18713773.167 -17109848.828 10 0 59809 83700.00000 0 -2324690.260 -20644045.752 -14798316.522 10 0 59809 84600.00000 0 -2111691.890 -22302722.608 -12199276.798 10 0 59809 85500.00000 0 -2063658.870 -23640740.737 -9363278.159 10 0 59810 0.00000 0 -2136618.390 -24619145.107 -6345449.158 10 0 59810 900.00000 0 -2280410.538 -25210624.796 -3204422.668 10 0 59810 1800.00000 0 -2441049.431 -25400577.714 -1196.290 10 0 59810 2700.00000 0 -2563247.552 -25187661.893 3202054.086 10 0 59810 3600.00000 0 -2592995.851 -24583809.743 6343180.251 10 0 59810 4500.00000 0 -2480090.153 -23613706.111 9361265.140 10 0 59810 5400.00000 0 -2180496.887 -22313752.780 12197800.222 10 0 59810 6300.00000 0 -1658458.085 -20730563.360 14797814.222 10 0 59810 7200.00000 0 -888246.806 -18919052.053 17110931.639 10 0 59810 8100.00000 0 144501.145 -16940196.327 19092341.239 10 0 59810 9000.00000 0 1441935.552 -14858566.774 20703656.606 10 0 59810 9900.00000 0 2993656.461 -12739726.808 21913652.847 10 0 59810 10800.00000 0 4776910.128 -10647609.819 22698866.177 10 0 59810 11700.00000 0 6757309.234 -8641982.062 23044045.468 10 0 59810 12600.00000 0 8890048.685 -6776095.917 22942447.529 10 0 59810 13500.00000 0 11121567.943 -5094630.021 22395970.672 10 0 59810 14400.00000 0 13391592.390 -3632001.030 21415123.797 10 0 59810 15300.00000 0 15635470.365 -2411116.463 20018831.134 10 0 59810 16200.00000 0 17786710.126 -1442619.934 18234075.633 10 0 59810 17100.00000 0 19779612.360 -724659.773 16095386.832 10 0 59810 18000.00000 0 21551889.325 -243190.462 13644182.034 10 0 59810 18900.00000 0 23047161.871 27205.923 10927972.385 10 0 59810 19800.00000 0 24217230.034 122012.882 7999448.246 10 0 59810 20700.00000 0 25024021.822 85042.342 4915460.905 10 0 59810 21600.00000 0 25441137.948 -33659.328 1735919.955 10 0 59810 22500.00000 0 25454926.823 -180173.279 -1477372.302 10 0 59810 23400.00000 0 25065043.761 -299237.645 -4661926.390 10 0 59810 24300.00000 0 24284470.033 -336836.539 -7755787.138 10 0 59810 25200.00000 0 23138990.253 -242737.842 -10698746.503 10 0 59810 26100.00000 0 21666149.611 27128.970 -13433523.170 10 0 59810 27000.00000 0 19913734.569 508557.050 -15906885.072 10 0 59810 27900.00000 0 17937840.859 1227299.424 -18070692.218 10 0 59810 28800.00000 0 15800610.146 2197735.156 -19882838.833 10 0 59810 29700.00000 0 13567730.624 3422022.088 -21308076.130 10 0 59810 30600.00000 0 11305806.561 4889773.084 -22318699.598 10 0 59810 31500.00000 0 9079707.238 6578270.410 -22895087.427 10 0 59810 32400.00000 0 6950006.183 8453210.142 -23026079.898 10 0 59810 33300.00000 0 4970617.519 10469946.078 -22709192.702 10 0 59810 34200.00000 0 3186727.758 12575181.526 -21950660.423 10 0 59810 35100.00000 0 1633108.570 14709038.557 -20765309.744 10 0 59810 36000.00000 0 332879.909 16807418.447 -19176265.190 10 0 59810 36900.00000 0 -703226.166 18804554.735 -17214493.434 10 0 59810 37800.00000 0 -1477071.793 20635652.296 -14918195.302 10 0 59810 38700.00000 0 -2002782.915 22239502.214 -12332057.481 10 0 59810 39600.00000 0 -2305897.810 23560963.120 -9506378.779 10 0 59810 40500.00000 0 -2422032.201 24553205.416 -6496088.179 10 0 59810 41400.00000 0 -2395118.793 25179624.669 -3359674.006 10 0 59810 42300.00000 0 -2275296.926 25415344.424 -158045.445 10 0 59810 43200.00000 0 -2116542.629 25248245.942 3046651.197 10 0 59810 44100.00000 0 -1974140.113 24679482.334 6192238.275 10 0 59810 45000.00000 0 -1902102.148 23723456.094 9217710.954 10 0 59810 45900.00000 0 -1950648.727 22407261.638 12064416.420 10 0 59810 46800.00000 0 -2163850.649 20769616.596 14677185.510 10 0 59810 47700.00000 0 -2577537.511 18859326.942 17005395.144 10 0 59810 48600.00000 0 -3217558.319 16733350.141 19003941.678 10 0 59810 49500.00000 0 -4098468.065 14454536.920 20634107.102 10 0 59810 50400.00000 0 -5222695.720 12089145.371 21864302.151 10 0 59810 51300.00000 0 -6580229.146 9704230.103 22670672.826 10 0 59810 52200.00000 0 -8148830.972 7365014.032 23037559.364 10 0 59810 53100.00000 0 -9894777.530 5132351.028 22957799.264 10 0 59810 54000.00000 0 -11774091.429 3060383.603 22432868.779 10 0 59810 54900.00000 0 -13734217.885 1194491.844 21472859.999 10 0 59810 55800.00000 0 -15716076.502 -430382.147 20096293.523 10 0 59810 56700.00000 0 -17656404.470 -1790965.452 18329769.565 10 0 59810 57600.00000 0 -19490294.805 -2876390.575 16207463.217 10 0 59810 58500.00000 0 -21153824.622 -3688406.419 13770472.531 10 0 59810 59400.00000 0 -22586664.250 -4241055.531 11066030.897 10 0 59810 60300.00000 0 -23734558.234 -4559831.392 8146597.975 10 0 59810 61200.00000 0 -24551573.961 -4680351.322 5068846.073 10 0 59810 62100.00000 0 -25002023.028 -4646601.168 1892561.231 10 0 59810 63000.00000 0 -25061973.706 -4508826.211 -1320519.781 10 0 59810 63900.00000 0 -24720289.858 -4321157.957 -4507913.548 10 0 59810 64800.00000 0 -23979151.505 -4139077.986 -7607611.235 10 0 59810 65700.00000 0 -22854034.075 -4016827.209 -10559292.386 10 0 59810 66600.00000 0 -21373146.376 -4004871.392 -13305506.675 10 0 59810 67500.00000 0 -19576350.294 -4147531.524 -15792799.732 10 0 59810 68400.00000 0 -17513607.242 -4480880.655 -17972760.342 10 0 59810 69300.00000 0 -15243016.445 -5030997.412 -19802967.923 10 0 59810 70200.00000 0 -12828527.391 -5812651.194 -21247821.518 10 0 59810 71100.00000 0 -10337422.315 -6828475.627 -22279234.023 10 0 59810 72000.00000 0 -7837674.214 -8068666.008 -22877178.151 10 0 59810 72900.00000 0 -5395290.796 -9511214.240 -23030073.821 10 0 59810 73800.00000 0 -3071755.045 -11122672.040 -22735009.744 10 0 59810 74700.00000 0 -921668.874 -12859410.751 -21997795.298 10 0 59810 75600.00000 0 1009302.582 -14669325.286 -20832842.081 10 0 59810 76500.00000 0 2686101.269 -16493910.970 -19262877.774 10 0 59810 77400.00000 0 4085492.609 -18270626.314 -17318498.204 10 0 59810 78300.00000 0 5196778.762 -19935442.798 -15037566.567 10 0 59810 79200.00000 0 6021980.655 -21425474.827 -12464471.697 10 0 59810 80100.00000 0 6575483.005 -22681579.589 -9649260.095 10 0 59810 81000.00000 0 6883159.160 -23650817.875 -6646658.829 10 0 59810 81900.00000 0 6981014.416 -24288672.734 -3515008.557 10 0 59810 82800.00000 0 6913406.583 -24560933.017 -315127.825 10 0 59810 83700.00000 0 6730920.313 -24445163.059 2890869.042 10 0 59810 84600.00000 0 6487986.067 -23931697.135 6040777.231 10 0 59810 85500.00000 0 6240345.075 -23024117.339 9073506.260 10 0 59811 0.00000 0 6042467.955 -21739195.348 11930260.757 10 0 59811 900.00000 0 5945036.131 -20106300.019 14555675.978 10 0 59811 1800.00000 0 5992592.628 -18166297.567 16898882.592 10 0 59811 2700.00000 0 6221460.864 -15969987.933 18914485.911 10 0 59811 3600.00000 0 6658019.289 -13576143.893 20563437.467 10 0 59811 4500.00000 0 7317404.294 -11049233.485 21813784.473 10 0 59811 5400.00000 0 8202696.100 -8456919.791 22641283.305 10 0 59811 6300.00000 0 9304622.262 -5867440.909 23029865.887 10 0 59811 7200.00000 0 10601791.926 -3346977.812 22971950.468 10 0 59811 8100.00000 0 12061452.144 -957118.050 22468591.071 10 0 59811 9000.00000 0 13640735.933 1247480.722 21529462.587 10 0 59811 9900.00000 0 15288351.333 3221131.468 20172681.403 10 0 59811 10800.00000 0 16946642.383 4928778.964 18424464.239 10 0 59811 11700.00000 0 18553937.226 6347213.193 16318630.789 10 0 59811 12600.00000 0 20047086.206 7465784.866 13895958.711 10 0 59811 13500.00000 0 21364084.492 8286593.690 11203402.283 10 0 59811 14400.00000 0 22446669.654 8824141.776 8293188.858 10 0 59811 15300.00000 0 23242785.075 9104466.948 5221809.922 10 0 59811 16200.00000 0 23708805.202 9163792.664 2048925.862 10 0 59811 17100.00000 0 23811428.183 9046751.790 -1163794.393 10 0 59811 18000.00000 0 23529155.091 8804259.643 -4353875.967 10 0 59811 18900.00000 0 22853292.188 8491126.899 -7459258.937 10 0 59811 19800.00000 0 21788432.734 8163514.205 -10419513.020 10 0 59811 20700.00000 0 20352396.889 7876337.205 -13177021.408 10 0 59811 21600.00000 0 18575631.222 7680733.002 -15678109.842 10 0 59811 22500.00000 0 16500092.306 7621696.420 -17874098.146 10 0 59811 23400.00000 0 14177660.788 7735987.186 -19722253.048 10 0 59811 24300.00000 0 11668152.121 8050397.547 -21186623.385 10 0 59811 25200.00000 0 9037007.091 8580454.405 -22238741.275 10 0 59811 26100.00000 0 6352758.714 9329611.431 -22858175.612 10 0 59811 27000.00000 0 3684381.202 10288965.821 -23032927.402 10 0 59811 27900.00000 0 1098631.397 11437512.034 -22759659.565 10 0 59811 28800.00000 0 -1342506.744 12742922.093 -22043757.131 10 0 59811 29700.00000 0 -3584168.717 14162819.823 -20899217.066 10 0 59811 30600.00000 0 -5580650.154 15646495.570 -19348370.206 10 0 59811 31500.00000 0 -7297057.584 17136989.336 -17421441.046 10 0 59811 32400.00000 0 -8710501.813 18573454.797 -15155954.177 10 0 59811 33300.00000 0 -9810785.690 19893704.847 -12595999.140 10 0 59811 34200.00000 0 -10600559.232 21036831.587 -9791368.250 10 0 59811 35100.00000 0 -11094937.532 21945790.615 -6796584.401 10 0 59811 36000.00000 0 -11320599.396 22569840.963 -3669838.006 10 0 59811 36900.00000 0 -11314406.372 22866738.079 -471854.115 10 0 59811 37800.00000 0 -11121602.002 22804587.792 2735287.984 10 0 59811 38700.00000 0 -10793668.540 22363283.414 5889359.504 10 0 59811 39600.00000 0 -10385932.615 21535465.810 8929187.603 10 0 59811 40500.00000 0 -9955021.615 20326966.267 11795838.136 10 0 59811 41400.00000 0 -9556278.497 18756713.665 14433752.990 10 0 59811 42300.00000 0 -9241244.196 16856109.842 16791820.254 10 0 59811 43200.00000 0 -9055313.610 14667899.054 18824357.159 10 0 59811 44100.00000 0 -9035663.647 12244578.251 20491987.502 10 0 59811 45000.00000 0 -9209540.237 9646413.836 21762397.421 10 0 59811 45900.00000 0 -9592976.122 6939146.468 22610955.755 10 0 59811 46800.00000 0 -10189993.303 4191478.148 23021187.793 10 0 59811 47700.00000 0 -10992323.899 1472444.702 22985093.743 10 0 59811 48600.00000 0 -11979661.713 -1151218.730 22503306.079 10 0 59811 49500.00000 0 -13120434.935 -3617611.334 21585082.618 10 0 59811 50400.00000 0 -14373068.709 -5871995.429 20248135.053 10 0 59811 51300.00000 0 -15687686.020 -7868824.939 18518295.525 10 0 59811 52200.00000 0 -17008176.916 -9573390.117 16429026.670 10 0 59811 53100.00000 0 -18274550.481 -10963010.661 14020783.546 10 0 59811 54000.00000 0 -19425471.776 -12027727.969 11340238.644 10 0 59811 54900.00000 0 -20400877.747 -12770467.920 8439383.960 10 0 59811 55800.00000 0 -21144562.192 -13206667.511 5374526.820 10 0 59811 56700.00000 0 -21606620.693 -13363381.276 2205198.436 10 0 59811 57600.00000 0 -21745651.754 -13277905.301 -1007003.725 10 0 59811 58500.00000 0 -21530620.279 -12995977.232 -4199616.967 10 0 59811 59400.00000 0 -20942303.520 -12569628.776 -7310533.873 10 0 59811 60300.00000 0 -19974257.073 -12054782.199 -10279217.826 10 0 59811 61200.00000 0 -18633258.817 -11508693.299 -13047888.859 10 0 59811 62100.00000 0 -16939210.794 -10987350.048 -15562655.908 10 0 59811 63000.00000 0 -14924502.029 -10542937.944 -17774572.597 10 0 59811 63900.00000 0 -12632858.216 -10221480.263 -19640595.313 10 0 59811 64800.00000 0 -10117725.879 -10060753.847 -21124424.522 10 0 59811 65700.00000 0 -7440258.218 -10088569.175 -22197212.821 10 0 59811 66600.00000 0 -4666986.626 -10321487.870 -22838125.929 10 0 59811 67500.00000 0 -1867274.883 -10764032.081 -23034745.960 10 0 59811 68400.00000 0 889338.066 -11408419.231 -22783309.493 10 0 59811 69300.00000 0 3535796.239 -12234833.325 -22088776.140 10 0 59811 70200.00000 0 6010075.442 -13212221.324 -20964726.733 10 0 59811 71100.00000 0 8257517.340 -14299580.876 -19433093.410 10 0 59811 72000.00000 0 10232852.349 -15447685.014 -17523727.172 10 0 59811 72900.00000 0 11901828.225 -16601170.966 -15273811.606 10 0 59811 73800.00000 0 13242377.787 -17700904.946 -12727134.339 10 0 59811 74700.00000 0 14245278.506 -18686523.114 -9933230.702 10 0 59811 75600.00000 0 14914278.173 -19499041.497 -6946416.480 10 0 59811 76500.00000 0 15265683.191 -20083424.805 -3824728.799 10 0 59811 77400.00000 0 15327428.546 -20391005.814 -628796.145 10 0 59811 78300.00000 0 15137670.336 -20381653.351 2579340.259 10 0 59811 79200.00000 0 14742961.560 -20025597.624 5737430.572 10 0 59811 80100.00000 0 14196089.267 -19304836.056 8784222.309 10 0 59811 81000.00000 0 13553665.136 -18214060.574 11660644.765 10 0 59811 81900.00000 0 12873571.595 -16761067.305 14310949.127 10 0 59811 82800.00000 0 12212371.302 -14966631.375 16683782.443 10 0 59811 83700.00000 0 11622789.029 -12863851.699 18733175.305 10 0 59811 84600.00000 0 11151371.601 -10496992.561 20419424.854 10 0 59811 85500.00000 0 10836423.845 -7919869.572 21709856.856 99